[[{"header":{"parameterUnit":"m.s-1","parameterCategory":1,"la1":30.2991,"la2":30.254,"lo1":-89.0895,"lo2":-89.0444,"dy":0.0017,"dx":0.0017,"nx":28,"ny":28,"refTime":"2023-08-20T09:00:00:Z","depth":0,"parameterNumber":2,"parameterNumberName":"U-component_of_WINDS"},"data":[0,0,0,0,0,0,0,0,0,0,0,0,0,0,0,0,0,0,0,0,0,0,0,0,0,0,0,0,0,0,0,0,0,0,0,0,0,0,0,0,0,0,0,0,0,0,0,0,0,0,0,0,0,0,0,0,0,0,-6.1151,-6.1151,0,-6.1182,-6.1182,-6.1183,-6.1094,-6.1091,-6.1089,-6.1086,-6.1117,-6.112,-6.1124,0,0,0,0,0,0,0,0,0,0,0,0,0,-6.1017,-6.102,-6.1151,-6.1151,-6.1152,-6.1182,-6.1182,-6.1183,-6.1095,-6.1091,-6.1088,-6.1085,-6.1116,-6.112,-6.1124,0,0,0,0,0,0,0,0,0,0,0,0,0,-6.1065,-6.1021,-6.1151,-6.1111,-6.1108,-6.1182,-6.1182,-6.1183,-6.1095,-6.1091,-6.1087,-6.1083,-6.1115,-6.112,-6.1125,-6.1237,0,0,-6.114,-6.1142,0,0,0,0,0,0,0,0,-6.1062,-6.107,-6.1117,-6.1114,-6.1111,-6.113,-6.1146,-6.1201,-6.1096,-6.11,-6.1086,-6.1081,-6.1125,-6.1129,-6.1143,-6.1239,-6.124,-6.114,-6.1143,-6.1146,-6.1147,0,0,0,0,0,0,0,-6.1059,-6.1068,-6.1163,-6.1118,-6.1114,-6.1093,-6.1095,-6.1156,-6.1135,-6.1099,-6.1093,-6.1098,-6.1122,-6.1139,-6.1143,-6.1241,-6.114,-6.1145,-6.1148,-6.115,-6.1433,-6.1437,0,0,0,0,0,0,-6.1061,-6.1066,-6.1162,-6.1164,-6.1076,-6.1099,-6.1101,-6.1128,-6.1134,-6.1131,-6.1102,-6.1094,-6.1132,-6.1138,-6.1144,-6.1277,-6.1146,-6.115,-6.1153,-6.1428,-6.1434,-6.1439,0,0,0,0,0,0,-6.1058,-6.107,-6.1161,-6.1113,-6.1123,-6.1105,-6.1136,-6.1131,-6.1147,-6.1135,-6.1131,-6.1122,-6.1129,-6.1137,-6.1215,-6.1277,-6.1153,-6.1157,-6.1423,-6.143,-6.1436,-6.1544,0,0,0,0,0,0,-6.1055,-6.107,-6.1112,-6.1115,-6.1126,-6.1231,-6.114,-6.1134,-6.1156,-6.1146,-6.1154,-6.1151,-6.1126,-6.1208,-6.122,-6.1281,-6.1161,-6.1417,-6.1426,-6.1434,-6.1534,-6.1553,-6.1569,0,0,0,0,0,-6.105,-6.114,-6.1114,-6.1126,-6.1178,-6.1235,-6.1241,-6.1211,-6.1161,-6.1204,-6.1197,-6.1151,-6.1269,-6.1217,-6.123,-6.1293,-6.1413,-6.1424,-6.1433,-6.1527,-6.1549,-6.1569,0,0,0,0,0,0,-6.1143,-6.1139,-6.1111,-6.1204,-6.1221,-6.122,-6.1272,-6.1236,-6.1267,-6.1256,-6.1218,-6.122,-6.1306,-6.1308,-6.125,-6.1404,-6.1333,-6.1346,-6.1399,-6.1421,-6.1438,-6.1434,-6.1165,0,0,0,0,0,-6.1175,-6.1221,-6.1216,-6.1299,-6.1309,-6.129,-6.1313,-6.1289,-6.1304,-6.131,-6.1309,-6.1326,-6.1367,-6.1394,-6.1431,-6.1536,-6.1536,-6.1586,-6.1604,-6.1618,-6.1629,-6.1685,-6.1708,-6.1472,-6.1472,-6.1472,0,0,-6.124,-6.1244,-6.1275,-6.1318,-6.1327,-6.1377,-6.1296,-6.135,-6.1387,-6.1319,-6.1392,-6.1393,-6.1409,-6.1502,-6.1542,-6.1506,-6.1695,-6.1631,-6.1642,-6.1645,-6.1698,-6.172,-6.174,-6.1479,-6.1477,-6.1476,0,0,-6.1383,-6.1391,-6.1461,-6.1474,-6.1491,-6.1478,-6.1496,-6.1501,-6.1499,-6.1573,-6.1523,-6.1567,-6.1638,-6.1652,-6.1669,-6.1823,-6.1782,-6.1837,-6.1926,-6.1982,-6.2,-6.2016,-6.2071,-6.2091,-6.1848,-6.1848,-6.1849,0,-6.1461,-6.1533,-6.1502,-6.1561,-6.1582,-6.1525,-6.1596,-6.161,-6.1638,-6.1654,-6.1614,-6.1704,-6.1711,-6.1806,-6.1844,-6.186,-6.1879,-6.1833,-6.2,-6.2016,-6.2031,-6.2082,-6.2103,-6.1855,-6.1854,-6.1853,-6.1853,0,-6.1629,-6.168,-6.1735,-6.1764,-6.1792,-6.1857,-6.1837,-6.1869,-6.1844,-6.1836,-6.1914,-6.1921,-6.1959,-6.1981,-6.1956,-6.2074,-6.2051,-6.2007,-6.1933,-6.206,-6.2108,-6.2127,-6.1864,-6.1862,-6.186,-6.1858,0,0,-6.1826,-6.1841,-6.1862,-6.1875,-6.1892,-6.1931,-6.1995,-6.2033,-6.2061,-6.2085,-6.2137,-6.2201,-6.2161,-6.218,-6.2158,-6.2207,-6.2329,-6.2156,-6.2156,-6.2187,-6.2459,-6.2491,-6.2514,-6.2304,-6.2307,-6.231,-6.2457,0,-6.1967,-6.2075,-6.2052,-6.2159,-6.2206,-6.2156,-6.2212,-6.2229,-6.2225,-6.2265,-6.226,-6.2306,-6.225,-6.2261,-6.2308,-6.2304,-6.2383,-6.2294,-6.2352,-6.2354,-6.2346,-6.2539,-6.2572,-6.271,-6.2476,-6.2479,-6.2481,0,-6.2143,-6.2174,-6.2287,-6.2298,-6.2317,-6.2368,-6.2402,-6.2441,-6.2461,-6.2454,-6.2478,-6.2448,-6.2512,-6.2442,-6.2531,-6.2471,-6.2494,-6.2497,-6.2501,-6.2503,-6.2423,-6.2544,-6.2753,-6.2773,-6.251,-6.2508,-6.2506,0,-6.2275,-6.2345,-6.2422,-6.2435,-6.2451,-6.2488,-6.2496,-6.2511,-6.2537,-6.2568,-6.2584,-6.2623,-6.2643,-6.2674,-6.2655,-6.2606,-6.2748,-6.2675,-6.2744,-6.2745,-6.2773,-6.2771,-6.2987,-6.2793,-6.2793,-6.2792,-6.2792,0,-6.2433,-6.2503,-6.2481,-6.2528,-6.2607,-6.258,-6.2659,-6.2661,-6.2676,-6.2723,-6.2683,-6.2728,-6.2702,-6.2746,-6.2732,-6.2808,-6.2818,-6.2815,-6.281,-6.2817,-6.2817,-6.2829,-6.2818,-6.2798,-6.2796,-6.2795,-6.2794,0,-6.2591,-6.2579,-6.2659,-6.2669,-6.2673,-6.2731,-6.2739,-6.2783,-6.2778,-6.2838,-6.2851,-6.2843,-6.2893,-6.2878,-6.2932,-6.2923,-6.3019,-6.3003,-6.3012,-6.3007,-6.3077,-6.307,-6.3306,-6.3335,-6.3124,-6.3126,-6.3128,0,-6.2691,-6.2744,-6.276,-6.2789,-6.2801,-6.2848,-6.2875,-6.2852,-6.2882,-6.291,-6.2952,-6.2998,-6.3034,-6.3116,-6.3115,-6.3157,-6.314,-6.322,-6.3146,-6.3152,-6.314,-6.3136,-6.3141,-6.3234,-6.3236,-6.3238,-6.324,0,-6.2869,-6.2862,-6.2901,-6.2941,-6.2974,-6.3003,-6.3029,-6.3056,-6.3035,-6.3071,-6.3122,-6.315,-6.3206,-6.3253,-6.3292,-6.3301,-6.3268,-6.3264,-6.3282,-6.3289,-6.3291,-6.329,-6.305,-6.3258,-6.3256,-6.3255,-6.3254,-6.3253,-6.3,-6.3046,-6.3065,-6.3111,-6.3129,-6.3155,-6.3198,-6.3199,-6.3241,-6.3285,-6.3271,-6.3329,-6.335,-6.3399,-6.3414,-6.346,-6.343,-6.3456,-6.3462,-6.3468,-6.3477,-6.3287,-6.3468,-6.3467,-6.3466,-6.3466,-6.3466,0,-6.3175,-6.3186,-6.323,-6.3268,-6.3305,-6.3273,-6.3301,-6.3334,-6.3386,-6.3409,-6.3446,-6.3506,-6.3552,-6.3557,-6.3601,-6.3637,-6.3623,-6.365,-6.3645,-6.3648,-6.3502,-6.3481,-6.366,-6.366,-6.366,-6.366,-6.366,-6.366,-6.327,-6.3346,-6.3342,-6.3427,-6.3438,-6.3495,-6.3514,-6.3538,-6.3556,-6.3625,-6.3664,-6.3667,-6.3684,-6.3729,-6.3771,-6.3771,-6.3789,-6.3821,-6.3815,-6.3678,-6.3658,-6.364,-6.362,-6.3825,-6.3826,-6.3957,-6.3959,-6.396]},{"header":{"parameterUnit":"m.s-1","parameterCategory":1,"la1":30.2991,"la2":30.254,"lo1":-89.0895,"lo2":-89.0444,"dy":0.0017,"dx":0.0017,"nx":28,"ny":28,"refTime":"2023-08-20T09:00:00:Z","depth":0,"parameterNumber":3,"parameterNumberName":"V-component_of_WINDS"},"data":[0,0,0,0,0,0,0,0,0,0,0,0,0,0,0,0,0,0,0,0,0,0,0,0,0,0,0,0,0,0,0,0,0,0,0,0,0,0,0,0,0,0,0,0,0,0,0,0,0,0,0,0,0,0,0,0,0,0,2.5118,2.5119,0,2.5216,2.5217,2.5218,2.5352,2.5354,2.5357,2.5359,2.5455,2.5455,2.5456,0,0,0,0,0,0,0,0,0,0,0,0,0,2.5044,2.5045,2.5118,2.5119,2.512,2.5216,2.5217,2.5219,2.5352,2.5354,2.5357,2.536,2.5455,2.5455,2.5456,0,0,0,0,0,0,0,0,0,0,0,0,0,2.5102,2.5045,2.5118,2.5198,2.5207,2.5216,2.5217,2.5219,2.5351,2.5354,2.5358,2.5361,2.5455,2.5455,2.5456,2.5393,0,0,2.5458,2.5458,0,0,0,0,0,0,0,0,2.5099,2.5105,2.5185,2.5193,2.5202,2.5275,2.5227,2.5277,2.535,2.5296,2.5359,2.5363,2.5392,2.5398,2.5409,2.5397,2.5401,2.5458,2.5459,2.5459,2.5459,0,0,0,0,0,0,0,2.5095,2.5101,2.5157,2.5186,2.5197,2.5229,2.5241,2.5237,2.5324,2.5301,2.5311,2.5321,2.5397,2.5408,2.5412,2.5403,2.5458,2.5459,2.5459,2.546,2.5346,2.5343,0,0,0,0,0,0,2.5079,2.5097,2.5154,2.516,2.5158,2.5228,2.5241,2.5248,2.5324,2.5339,2.5318,2.5327,2.5405,2.5411,2.5416,2.5348,2.5459,2.546,2.546,2.535,2.5346,2.5342,0,0,0,0,0,0,2.5077,2.5083,2.515,2.5131,2.5142,2.5225,2.5232,2.5248,2.5259,2.5337,2.5353,2.5313,2.5408,2.5415,2.5398,2.5354,2.546,2.5461,2.5354,2.5348,2.5344,2.5211,0,0,0,0,0,0,2.5074,2.5081,2.5058,2.513,2.5143,2.513,2.523,2.5248,2.5261,2.5273,2.5337,2.535,2.5411,2.5397,2.5399,2.5356,2.5461,2.5358,2.5351,2.5345,2.5219,2.5202,2.5186,0,0,0,0,0,2.5071,2.5015,2.5056,2.5062,2.5116,2.5127,2.5135,2.5207,2.5256,2.5234,2.5285,2.5348,2.5358,2.5394,2.5398,2.5354,2.5361,2.5353,2.5346,2.5227,2.5205,2.5187,0,0,0,0,0,0,2.4934,2.5026,2.5072,2.5038,2.5074,2.515,2.5123,2.5181,2.5203,2.5213,2.5301,2.5314,2.5287,2.5319,2.5357,2.5298,2.537,2.5362,2.5278,2.5258,2.5242,2.5234,2.5462,0,0,0,0,0,2.49,2.4903,2.4983,2.4945,2.4961,2.5039,2.5046,2.51,2.514,2.5155,2.5204,2.5239,2.5251,2.5257,2.5271,2.5226,2.5242,2.5198,2.5181,2.5168,2.516,2.5139,2.5121,2.5317,2.5317,2.5317,0,0,2.483,2.488,2.4876,2.4919,2.4953,2.4953,2.505,2.5046,2.5047,2.5154,2.5141,2.5179,2.5225,2.5193,2.5182,2.5219,2.511,2.5158,2.5146,2.5146,2.513,2.5111,2.5094,2.5311,2.5312,2.5313,0,0,2.4701,2.474,2.4714,2.4746,2.4798,2.485,2.4844,2.4911,2.4941,2.493,2.5011,2.5013,2.5031,2.5061,2.5078,2.4964,2.5024,2.4966,2.4879,2.4858,2.4843,2.483,2.4789,2.4774,2.4959,2.4958,2.4958,0,2.4607,2.4611,2.4692,2.4684,2.47,2.48,2.4774,2.4801,2.4853,2.4862,2.4904,2.493,2.4968,2.4946,2.4918,2.4929,2.4924,2.4958,2.4839,2.4826,2.4815,2.4778,2.4762,2.4951,2.4952,2.4952,2.4953,0,2.4493,2.4494,2.4467,2.4517,2.4531,2.4513,2.4592,2.4596,2.4649,2.4697,2.4685,2.4735,2.4762,2.4761,2.4811,2.4746,2.4768,2.4823,2.4896,2.4788,2.4754,2.474,2.494,2.4943,2.4945,2.4947,0,0,2.4278,2.4376,2.4364,2.4389,2.4454,2.4457,2.4444,2.4473,2.4475,2.4509,2.45,2.4514,2.4567,2.4586,2.4641,2.4623,2.4531,2.4681,2.4684,2.4651,2.4463,2.442,2.4402,2.4572,2.4569,2.4567,2.4459,0,2.4162,2.4147,2.4221,2.4186,2.4189,2.4285,2.4274,2.4313,2.4358,2.4367,2.4417,2.4426,2.4494,2.4507,2.4493,2.4544,2.4494,2.4554,2.4564,2.4563,2.4548,2.4385,2.4339,2.4235,2.4446,2.4444,2.4443,0,2.4024,2.4052,2.4018,2.4087,2.4091,2.408,2.4113,2.4121,2.4167,2.4201,2.4224,2.4289,2.4281,2.4352,2.4344,2.4383,2.4392,2.4418,2.4416,2.4418,2.4495,2.4382,2.4203,2.4187,2.4422,2.4424,2.4425,0,2.3871,2.39,2.3884,2.3903,2.3982,2.3973,2.4005,2.4055,2.4068,2.4097,2.4106,2.4133,2.4147,2.4167,2.4237,2.4282,2.422,2.4297,2.4248,2.4246,2.4229,2.4229,2.4048,2.4236,2.4236,2.4236,2.4237,0,2.3733,2.3708,2.3817,2.3807,2.3782,2.3868,2.3841,2.3883,2.3927,2.3927,2.4012,2.4009,2.4103,2.4111,2.4166,2.415,2.4156,2.4184,2.4198,2.4176,2.4172,2.4182,2.419,2.4232,2.4233,2.4234,2.4235,0,2.3557,2.3629,2.3618,2.3696,2.3715,2.3693,2.3759,2.3753,2.3805,2.3804,2.3808,2.3889,2.3903,2.3976,2.4006,2.4044,2.4009,2.4039,2.3994,2.4003,2.3951,2.3954,2.3768,2.3749,2.3949,2.3947,2.3945,0,2.3464,2.3447,2.3524,2.3531,2.356,2.3569,2.3584,2.3668,2.3679,2.3732,2.372,2.3741,2.3763,2.3782,2.3842,2.3867,2.3897,2.3831,2.3901,2.388,2.3896,2.3896,2.3895,2.3815,2.3812,2.381,2.3808,0,2.329,2.3328,2.3346,2.3377,2.3392,2.342,2.3453,2.3454,2.3547,2.3556,2.3573,2.359,2.3623,2.3643,2.3678,2.3712,2.3775,2.3786,2.3776,2.3752,2.3727,2.374,2.3952,2.379,2.3791,2.3793,2.3794,2.3795,2.3153,2.3144,2.3197,2.3215,2.3249,2.3279,2.3277,2.333,2.3346,2.338,2.3429,2.3439,2.3488,2.3542,2.3571,2.358,2.3616,2.3601,2.3598,2.3592,2.3581,2.3726,2.3587,2.3587,2.3588,2.3588,2.3589,0,2.2985,2.3024,2.304,2.3085,2.3099,2.316,2.32,2.3208,2.3216,2.3257,2.3277,2.3297,2.3318,2.3382,2.3409,2.3404,2.3434,2.3408,2.3409,2.3416,2.3547,2.3553,2.3384,2.3384,2.3384,2.3384,2.3384,2.3384,2.2899,2.2886,2.293,2.2936,2.2976,2.2987,2.3005,2.3033,2.3066,2.3085,2.3103,2.3145,2.3195,2.3228,2.325,2.3268,2.3274,2.3238,2.3266,2.3387,2.3406,2.3425,2.3431,2.3239,2.3239,2.3134,2.3133,2.3132]}]]